This demonstration page uses our WeatherBlox Daily Observations layout. Learn more.

Left ArrowRight Arrow

39.08367, -84.50855

Hourly Observations for July 17, 2015

Temp ( °F °C ) Dew Point ( °F °C ) Humidity (%) Winds ( mph kmh ) Pressure ( in mb ) Visibility ( mi km ) Precip ( " mm )
12:53 am 00:53 Clear 68 20 68 20 100 100 SW 5 7 29.96 1014 7 11 0.00 0.00
1:53 am 01:53 Clear 70 21.1 68 20 93 93 Calm 29.96 1015 8 13 0.00 0.00
2:53 am 02:53 Clear with Mist and Fog 68 20 67 19.4 96 96 Calm 29.95 1014 5 8 0.00 0.00
3:53 am 03:53 Clear with Mist and Fog 67 19.4 66 18.9 97 97 Calm 29.95 1014 6 10 0.00 0.00
4:40 am 04:40 Clear with Mist and Fog 66 19 66 19 100 100 Calm 29.91 1013 1 2 0.00 0.00
4:46 am 04:46 Clear with Mist and Fog 66 19 66 19 100 100 Calm 29.91 1013 3 5 0.00 0.00
4:53 am 04:53 Clear with Mist and Fog 66 18.9 66 18.9 100 100 W 3 6 29.94 1014 5 8 0.00 0.00
5:53 am 05:53 Clear 66 18.9 65 18.3 96 96 WSW 3 6 29.94 1014 8 13 0.00 0.00
6:53 am 06:53 Sunny 67 19.4 66 18.9 97 97 Calm 29.95 1014 10 16 0.00 0.00
7:53 am 07:53 Mostly Cloudy 71 21.7 68 20 90 90 S 5 7 29.95 1014 10 16 0.00 0.00
8:53 am 08:53 Mostly Sunny 73 22.8 69 20.6 87 87 SSW 5 7 29.94 1014 10 16 0.00 0.00
9:53 am 09:53 Partly Cloudy 77 25 70 21.1 79 79 SSW 6 9 29.94 1014 10 16 0.00 0.00
10:53 am 10:53 Mostly Cloudy 80 26.7 71 21.7 74 74 S 7 11 29.93 1014 10 16 0.00 0.00
11:53 am 11:53 Mostly Sunny 84 28.9 73 22.8 70 70 SSW 9 15 29.92 1013 10 16 0.00 0.00
12:53 pm 12:53 Sunny 85 29.4 75 23.9 72 72 S 10 17 29.93 1013 10 16 0.00 0.00
1:53 pm 13:53 Partly Cloudy 88 31.1 76 24.4 68 68 SSW 9 15 29.91 1013 10 16 0.00 0.00
2:53 pm 14:53 Mostly Cloudy 89 31.7 75 23.9 63 63 SSW 12 19 29.90 1012 10 16 0.00 0.00
3:53 pm 15:53 Partly Cloudy 88 31.1 74 23.3 63 63 SSW 13 20 29.88 1012 10 16 0.00 0.00
4:14 pm 16:14 Partly Cloudy 90 32 73 23 59 59 S 15 24 29.85 1011 10 16 0.00 0.00
4:53 pm 16:53 Mostly Sunny 89 31.7 75 23.9 63 63 SSW 14 22 29.88 1012 10 16 0.00 0.00
5:53 pm 17:53 Sunny 86 30 74 23.3 67 67 S 10 17 29.88 1012 10 16 0.00 0.00
6:53 pm 18:53 Mostly Sunny 83 28.3 76 24.4 79 79 SSW 7 11 29.89 1012 10 16 0.00 0.00
7:35 pm 19:35 Sunny with Thunderstorms 81 27.2 75 23.9 82 82 S 7 11 29.88 1012 10 16 0.00 0.00
7:50 pm 19:50 Sunny with Nearby Thunderstorms 81 27 75 24 84 84 SSW 5 7 29.88 1012 10 16 0.00 0.00
7:53 pm 19:53 Sunny with Nearby Thunderstorms 81 27.2 75 23.9 82 82 SSW 6 9 29.86 1011 10 16 0.00 0.00
8:10 pm 20:10 Mostly Cloudy with Thunderstorms 81 27 75 24 84 84 SSW 9 15 29.88 1012 10 16 0.00 0.00
8:23 pm 20:23 Mostly Cloudy with Thunderstorms 82 27.8 74 23.3 77 77 SSW 14 22 29.88 1012 3 4 0.00 0.03
8:31 pm 20:31 Mostly Cloudy with Nearby Thunderstorms 80 26.7 74 23.3 82 82 SSW 14 22 29.88 1012 10 16 0.00 0.03
8:41 pm 20:41 Mostly Cloudy with Light Rain 77 25 72 22.2 85 85 S 14 22 29.88 1012 10 16 0.00 0.03
8:53 pm 20:53 Mostly Cloudy with Light Rain 76 24.4 71 21.7 85 85 SW 15 24 29.91 1013 10 16 0.00 0.03
9:12 pm 21:12 Partly Cloudy with Nearby Thunderstorms 75 24 70 21 83 83 SW 8 13 29.91 1013 10 16 0.00 0.00
9:53 pm 21:53 Clear 73 22.8 70 21.1 90 90 SSW 7 11 29.95 1014 10 16 0.01 0.25
10:04 pm 22:04 Partly Cloudy with Thunderstorms 73 22.8 70 21.1 90 90 SSW 7 11 29.94 1014 10 16 0.00 0.00
10:53 pm 22:53 Mostly Clear with Thunderstorms 71 21.7 70 21.1 96 96 S 16 26 29.93 1013 10 16 0.03 0.76
11:39 pm 23:39 Mostly Clear with Thunderstorms 72 22.2 69 20.6 91 91 S 15 24 29.91 1013 10 16 0.04 1.02
11:53 pm 23:53 Mostly Clear with Nearby Thunderstorms 72 22.2 69 20.6 91 91 S 16 26 29.89 1012 10 16 0.05 1.27

Powered by AerisWeather